{"data":{"norad_id":52668,"epoch":"2026-09-19T21:46:46.278912Z","epoch_age_seconds":117633,"freshness":"FRESH","line1":"1 52668U 22053N   26262.90748008 -.00001340  00000+0 -31424-4 0  9990","line2":"2 52668  53.1618 348.5479 0001436 113.5324 246.5828 15.31704636240553","mean_motion":15.31704636,"eccentricity":0.0001436,"inclination_deg":53.1618,"raan_deg":348.5479,"arg_perigee_deg":113.5324,"mean_anomaly_deg":246.5828,"bstar":-3.1424e-5,"rev_number":24055,"period_min":94.012903412013,"perigee_km":469.74267883373,"apogee_km":471.70967233776,"semimajor_km":6848.8631755857,"source":"CELESTRAK","updated_at":"2026-09-20T09:00:40.102509Z"}}